Location: Napa Junction
(38.1874°N, 122.2508°W)
Time: 22:41:19
(UTC+00:00)

CENTAUR R/B - Pass Details

Date: 10 December 2024
Orbit: 654 x 1528 km, 63.4° (Epoch: 19 January)

Event Time Altitude Azimuth Distance (km) Brightness Sun altitude
Rises 13:34:34 0° 196° (SSW) 3,113 5.1 -19.1°
Reaches altitude 10° 13:36:47 10° 191° (S) 2,271 4.5 -18.7°
Maximum altitude 13:41:48 53° 116° (ESE) 1,045 3.1 -17.8°
Drops below altitude 10° 13:47:59 10° 41° (NE) 2,783 5.2 -16.6°
Sets 13:50:56 0° 37° (NE) 3,885 5.9 -16.1°
